Regional Weather Roundup
Issued by NWS

Home | Current Version | Previous Version | Graphics & Text | Print | Product List | Glossary On
Versions: 1 2 3 4 5 6 7 8 9 10 11 12 13 14 15 16 17 18 19 20 21 22 23 24 25 26 27 28 29 30 31 32 33 34 35 36 37 38 39 40 41 42 43 44 45 46 47 48 49 50
394
ASUS43 KTOP 221708
RWRKS

WEATHER ROUNDUP FOR KANSAS
NATIONAL WEATHER SERVICE GOODLAND KS
1100 AM CST SUN JAN 22 2017

NOTE:  "FAIR" INDICATES FEW OR NO CLOUDS BELOW 12,000 FEET WITH NO
SIGNIFICANT WEATHER AND/OR OBSTRUCTIONS TO VISIBILITY.

KSZ001>006-013>018-027>032-041>047-221800-
NORTHWEST KANSAS

CITY           SKY/WX    TMP DP  RH WIND       PRES   REMARKS
GOODLAND       SUNNY     40  27  59 NW18      29.91R WCI  31
HAYS           SUNNY     44  31  60 N17       29.86R
HILL CITY      SUNNY     43  30  60 N17       29.89R
RUSSELL        SUNNY     44  31  60 N18       29.84R
$$

KSZ061>065-074>080-084>089-221800-
SOUTHWEST KANSAS

CITY           SKY/WX    TMP DP  RH WIND       PRES   REMARKS
DODGE CITY     SUNNY     43  34  70 N13G21    29.88R
GARDEN CITY    SUNNY     41  32  70 NW20G25   29.89R
GREAT BEND     SUNNY     43  32  65 NW16      29.85R
LIBERAL          N/A     45  36  70 NW18G25   29.91S
PRATT          SUNNY     41  31  67 N18       29.84R
$$

KSZ066>073-081>083-090>101-221800-
SOUTHEAST KANSAS

CITY           SKY/WX    TMP DP  RH WIND       PRES   REMARKS
CHANUTE        LGT RAIN  47  43  86 N15G23    29.67R
COFFEYVILLE    CLOUDY    49  44  83 N23G33    29.64R
HUTCHINSON     SUNNY     48  32  53 N18       29.79R
MEDICINE LODGE   N/A     47  35  63 N17G24    29.80R
NEWTON         SUNNY     43  36  76 N20G25    29.78R
PARSONS        LGT RAIN  48  43  82 N16G29    29.66R
WICHITA INTL   MOSUNNY   46  37  71 N16G22    29.77R
WICHITA JABRA  SUNNY     45  37  73 N20       29.76R
WICHITA MCCONL SUNNY     46  36  67 N14G20    29.76R
WINFIELD       SUNNY     50  41  71 N22G28    29.74R
$$

KSZ007>012-019>026-033>040-048>060-102>105-221800-
NORTHEAST KANSAS

CITY           SKY/WX    TMP DP  RH WIND       PRES   REMARKS
CONCORDIA      SUNNY     39  32  76 N15       29.81R WCI  31
EMPORIA        MOSUNNY   46  35  65 N16       29.74R
LAWRENCE       PTSUNNY   41  35  79 NW13      29.74R
MANHATTAN      SUNNY     45  32  60 N8        29.79R
MARYSVILLE     CLOUDY    32  32 100 N16       29.80R WCI  21
OLATHE IND     CLOUDY    43  40  89 N16       29.71R
OLATHE EXE     CLOUDY    43  40  89 N9        29.70R
SALINA         MOSUNNY   45  32  60 NW16G23   29.80R
TOPEKA BILLARD MOSUNNY   44  36  73 N13       29.75R
TOPEKA FORBES  MOSUNNY   45  36  70 N8        29.74R
$$




USA.gov is the U.S. government's official web portal to all federal, state and local government web resources and services.